Terug naar catalogus

STARLINK-36278

ActiefCommunicatieSSO
NORAD 68685·PAYLOAD·🇺🇸 United States

Gelanceerd Apr 11, 2026 vanaf Vandenberg Space Force Base

Loading…

Volgende Passages (komende 24 uur)

TLE

VersSource: CelesTrak SupGP

Epoch: Sep 15, 2026, 02:56 UTC

1 68685C 26077Z   26258.12270833  .00108810  00000+0  33803-2 0  2588
2 68685  97.2846 131.1233 0002087  89.7021  56.0471 15.33359123    18

Volg STARLINK-36278 in realtime met AllMySat

Download on the App Store